Weather History for KEIK - December, 2013

Change the Weather History Date:

Wednesday, December 4, 2013

  Actual Average (KBJC) Record (KBJC)
Temperature  
Mean Temperature 5 °F -  
Max Temperature 12 °F 44 °F 69 °F (2007)
Min Temperature -2 °F 26 °F 0 °F (2013)
Degree Days  
Heating Degree Days 60    
Moisture  
Dew Point 3 °F    
Average Humidity 83    
Maximum Humidity 90    
Minimum Humidity 71    
Precipitation  
Precipitation 0.00 in - - ()
Sea Level Pressure  
Sea Level Pressure 29.84 in    
Wind  
Wind Speed 5 mph (ENE)    
Max Wind Speed 12 mph    
Max Gust Speed -    
Visibility 6 miles    
Events Snow    
Averages and records for this station are not official NWS values.
T = Trace of Precipitation, MM = Missing Value Source: NWS Daily Summary

Daily Weather History Graph

Daily Weather History Graph

Search for Another Location

Airport or City:

Trip Planner

Search our weather history database for the weather conditions in past years. The results will help you decide how hot, cold, wet, or windy it might be!

Date:

Astronomy

Dec. 04, 2013 Rise Set
Actual Time 7:06 AM MST 4:34 PM MST
Civil Twilight 6:35 AM MST 5:05 PM MST
Nautical Twilight 6:02 AM MST 5:38 PM MST
Astronomical Twilight 5:29 AM MST 6:11 PM MST
Moon 8:36 AM MST (12/4) 6:48 PM MST (12/4)
Length of Visible Light 10h 29m
Length of Day
9h 28m
Waxing Crescent, 5% of the Moon is Illuminated
Dec 4
Waxing Crescent
Dec 9
First Quarter
Dec 17
Full
Dec 25
Last Quarter
Jan 1
New

Hourly Weather History & Observations

Time (MST) Temp. Windchill Dew Point Humidity Pressure Visibility Wind Dir Wind Speed Gust Speed Precip Events Conditions
12:14 AM 12.7 °F 3.6 °F 10.2 °F 90% 29.77 in 2.5 mi NE 5.8 mph - N/A Snow Light Snow
12:34 AM 12.2 °F 2.9 °F 9.5 °F 89% 29.76 in 3.0 mi NE 5.8 mph - N/A Snow Light Snow
12:54 AM 12.0 °F 2.7 °F 8.8 °F 87% 29.75 in 2.5 mi NNE 5.8 mph - N/A Snow Light Snow
1:14 AM 11.5 °F 2.1 °F 8.6 °F 88% 29.75 in 2.5 mi NNE 5.8 mph - N/A Snow Light Snow
1:34 AM 11.1 °F -0.6 °F 7.7 °F 86% 29.74 in 2.5 mi NNE 8.1 mph - N/A Snow Light Snow
1:54 AM 10.8 °F 0.0 °F 7.5 °F 87% 29.74 in 3.0 mi NNE 6.9 mph - N/A Snow Light Snow
2:14 AM 10.8 °F 1.2 °F 7.7 °F 87% 29.74 in 5.0 mi NNE 5.8 mph - N/A Snow Light Snow
2:34 AM 10.8 °F 2.7 °F 7.7 °F 87% 29.74 in 3.0 mi NNE 4.6 mph - N/A Snow Light Snow
2:54 AM 10.4 °F -0.4 °F 7.5 °F 88% 29.74 in 3.0 mi NE 6.9 mph - N/A Snow Light Snow
3:14 AM 10.2 °F -2.7 °F 6.6 °F 85% 29.74 in 5.0 mi NNE 9.2 mph - N/A Snow Light Snow
3:34 AM 9.9 °F -4.0 °F 6.3 °F 85% 29.74 in 4.0 mi NE 10.4 mph - N/A Snow Light Snow
3:54 AM 9.9 °F -1.1 °F 6.6 °F 87% 29.74 in 4.0 mi NE 6.9 mph - N/A Snow Light Snow
4:14 AM 9.5 °F -0.3 °F 6.4 °F 87% 29.74 in 1.8 mi NE 5.8 mph - N/A Snow Light Snow
4:34 AM 9.3 °F -0.5 °F 6.6 °F 89% 29.74 in 2.0 mi ENE 5.8 mph - N/A Snow Light Snow
4:54 AM 8.4 °F -3.9 °F 4.8 °F 85% 29.74 in 2.0 mi ENE 8.1 mph - N/A Snow Light Snow
5:14 AM 8.2 °F -1.8 °F 4.8 °F 86% 29.74 in 3.0 mi NE 5.8 mph - N/A Snow Light Snow
5:34 AM 8.2 °F 1.6 °F 4.8 °F 86% 29.74 in 4.0 mi NE 3.5 mph - N/A Snow Light Snow
5:54 AM 7.7 °F - 4.5 °F 87% 29.74 in 2.5 mi Calm Calm - N/A Snow Light Snow
6:14 AM 7.7 °F 1.0 °F 4.8 °F 88% 29.73 in 2.0 mi East 3.5 mph - N/A Snow Light Snow
6:34 AM 8.1 °F - 4.6 °F 86% 29.76 in 3.0 mi Calm Calm - N/A Snow Light Snow
6:54 AM 8.1 °F 1.4 °F 4.6 °F 86% 29.76 in 2.5 mi East 3.5 mph - N/A Snow Light Snow
7:14 AM 8.1 °F -0.5 °F 4.6 °F 86% 29.77 in 1.8 mi East 4.6 mph - N/A Snow Light Snow
7:34 AM 7.7 °F - 4.6 °F 87% 29.77 in 0.5 mi Calm Calm - N/A Snow Snow
7:54 AM 7.7 °F -0.9 °F 4.8 °F 88% 29.76 in 0.5 mi ENE 4.6 mph - N/A Snow Snow
8:14 AM 7.7 °F 1.0 °F 4.6 °F 87% 29.79 in 0.8 mi ENE 3.5 mph - N/A Snow Light Snow
8:34 AM 7.7 °F 1.0 °F 4.6 °F 87% 29.77 in 0.5 mi East 3.5 mph - N/A Snow Light Snow
8:54 AM 8.2 °F - 4.8 °F 86% 29.84 in 0.8 mi Calm Calm - N/A Snow Light Snow
9:14 AM 8.4 °F -1.6 °F 4.6 °F 85% 29.77 in 1.5 mi ENE 5.8 mph - N/A Snow Light Snow
9:34 AM 8.6 °F - 4.6 °F 84% 29.82 in 2.5 mi Calm Calm - N/A Snow Light Snow
9:54 AM 9.1 °F 2.6 °F 5.0 °F 83% 29.81 in 1.5 mi NE 3.5 mph - N/A Snow Light Snow
10:14 AM 9.5 °F - 4.6 °F 81% 29.82 in 3.0 mi Calm Calm - N/A Snow Light Snow
10:34 AM 10.0 °F - 4.8 °F 79% 29.81 in 5.0 mi Calm Calm - N/A   Haze
10:54 AM 10.9 °F 4.7 °F 4.6 °F 76% 29.77 in 10.0 mi ENE 3.5 mph - N/A   Clear
11:14 AM 11.5 °F - 3.9 °F 72% 29.82 in 10.0 mi Calm Calm - N/A   Scattered Clouds
11:34 AM 12.0 °F 5.9 °F 5.0 °F 73% 29.82 in 10.0 mi East 3.5 mph - N/A   Scattered Clouds
11:54 AM 11.3 °F 1.9 °F 5.2 °F 76% 29.80 in 5.0 mi ENE 5.8 mph - N/A   Haze
12:14 PM 11.1 °F 3.1 °F 5.0 °F 76% 29.82 in 4.0 mi ENE 4.6 mph - N/A   Haze
12:34 PM 11.3 °F 1.9 °F 5.2 °F 76% 29.82 in 2.5 mi NE 5.8 mph - N/A   Haze
12:54 PM 11.3 °F 1.9 °F 6.4 °F 81% 29.81 in 1.8 mi NE 5.8 mph - N/A Snow Light Snow
1:14 PM 11.5 °F -0.2 °F 6.4 °F 80% 29.82 in 2.0 mi ENE 8.1 mph - N/A Snow Light Snow
1:34 PM 11.3 °F 1.9 °F 5.2 °F 76% 29.83 in 7.0 mi ENE 5.8 mph - N/A   Scattered Clouds
1:54 PM 11.3 °F 1.9 °F 5.0 °F 76% 29.82 in 10.0 mi ENE 5.8 mph - N/A   Mostly Cloudy
2:14 PM 11.3 °F 0.7 °F 4.5 °F 74% 29.82 in 7.0 mi NE 6.9 mph - N/A Snow Light Snow
2:34 PM 11.3 °F 3.3 °F 4.6 °F 75% 29.85 in 5.0 mi NE 4.6 mph - N/A Snow Light Snow
2:54 PM 11.1 °F -2.4 °F 3.4 °F 71% 29.84 in 10.0 mi NNE 10.4 mph - N/A   Overcast
3:14 PM 10.9 °F 0.2 °F 3.9 °F 73% 29.85 in 10.0 mi ENE 6.9 mph - N/A   Overcast
3:34 PM 10.8 °F 1.2 °F 3.9 °F 74% 29.86 in 7.0 mi NE 5.8 mph - N/A Snow Light Snow
3:54 PM 10.2 °F 0.6 °F 3.0 °F 73% 29.86 in 10.0 mi ENE 5.8 mph - N/A   Overcast
4:14 PM 8.6 °F - 2.3 °F 76% 29.88 in 10.0 mi Calm Calm - N/A   Scattered Clouds
4:34 PM 7.7 °F - 2.3 °F 79% 29.89 in 10.0 mi Calm Calm - N/A   Clear
4:54 PM 5.4 °F - 1.4 °F 84% 29.90 in 10.0 mi Calm Calm - N/A   Clear
5:14 PM 3.0 °F - 0.5 °F 89% 29.91 in 10.0 mi Calm Calm - N/A   Mostly Cloudy
5:34 PM 2.1 °F - -0.9 °F 87% 29.92 in 5.0 mi Calm Calm - N/A Snow Light Snow
5:54 PM 2.5 °F - -0.2 °F 88% 29.93 in 10.0 mi Calm Calm - N/A   Scattered Clouds
6:14 PM 1.9 °F -7.6 °F -1.1 °F 87% 29.94 in 10.0 mi ESE 4.6 mph - N/A   Clear
6:34 PM 0.7 °F - -2.6 °F 86% 29.95 in 10.0 mi Calm Calm - N/A   Clear
6:54 PM 1.4 °F -11.3 °F -1.8 °F 86% 29.96 in 10.0 mi ESE 6.9 mph - N/A   Clear
7:14 PM 0.3 °F - -2.7 °F 87% 29.96 in 10.0 mi Calm Calm - N/A   Clear
7:34 PM 1.8 °F - -1.5 °F 86% 29.97 in 10.0 mi Calm Calm - N/A   Clear
7:54 PM 0.1 °F - -2.7 °F 88% 29.99 in 10.0 mi Calm Calm - N/A   Clear
8:14 PM 0.7 °F -7.1 °F -3.1 °F 84% 29.99 in 10.0 mi SSW 3.5 mph - N/A   Clear
8:34 PM -2.0 °F -10.1 °F -5.1 °F 87% 29.99 in 10.0 mi SSW 3.5 mph - N/A   Clear
8:54 PM -0.4 °F -10.4 °F -3.3 °F 88% 29.99 in 10.0 mi SSE 4.6 mph - N/A   Scattered Clouds
9:14 PM 1.8 °F - -1.7 °F 86% 29.99 in 10.0 mi Calm Calm - N/A   Mostly Cloudy
9:34 PM 3.2 °F -12.2 °F -0.9 °F 83% 29.99 in 10.0 mi East 10.4 mph - N/A   Overcast
9:54 PM 2.3 °F -14.2 °F -2.2 °F 81% 30.00 in 10.0 mi East 11.5 mph - N/A   Overcast
10:14 PM 2.7 °F -12.9 °F -1.8 °F 81% 30.00 in 10.0 mi SE 10.4 mph - N/A   Overcast
10:34 PM 1.8 °F -12.0 °F -3.3 °F 79% 30.01 in 10.0 mi SE 8.1 mph - N/A   Mostly Cloudy
10:54 PM 0.9 °F -14.2 °F -4.0 °F 80% 30.01 in 10.0 mi SE 9.2 mph - N/A   Mostly Cloudy
11:14 PM 0.5 °F -12.3 °F -5.1 °F 77% 30.02 in 10.0 mi ESE 6.9 mph - N/A   Scattered Clouds
11:34 PM -0.0 °F - -5.8 °F 77% 30.03 in 10.0 mi Calm Calm - N/A   Mostly Cloudy
11:54 PM 0.1 °F - -6.0 °F 75% 30.03 in 10.0 mi Calm Calm - N/A   Overcast